Terug naar catalogus

SL-8 R/B

ActiefPO
NORAD 10020·ROCKET BODY·🇷🇺 Russia

Gelanceerd May 25, 1977 vanaf Plesetsk Cosmodrome

Loading…

Volgende Passages (komende 24 uur)

TLE

VersSource: Space-Track

Epoch: Sep 14, 2026, 14:26 UTC

1 10020U 77039B   26257.60177400  .00000091  00000-0  74872-4 0  9998
2 10020  82.9493   9.8838 0030670 198.1233 161.8835 13.78412475478664

Volg SL-8 R/B in realtime met AllMySat

Download on the App Store